EW7698 Weather Reports


time (UTC)temp
C
wind
direction
speed
KPH
gust
KPH
rain 1hr
cm
rain 24hr
cm
rain mn
cm
humidity
%
barometer
mb
20260507164354 25 248 0.0 1.6 0.00 0.03 0.03 78 1010.3
20260507163837 25 248 0.0 9.7 0.00 0.03 0.03 77 1010.4
20260507163340 25 28 1.6 11.3 0.00 0.03 0.03 77 1010.8
20260507163106 24 13 0.0 11.3 0.00 0.03 0.03 77 1011.2
20260507163008 24 239 0.0 16.1 0.00 0.03 0.03 77 1011.6
20260507162824 25 269 1.6 16.1 0.00 0.03 0.03 77 1011.1
20260507162327 24 206 3.2 16.1 0.00 0.03 0.03 77 1010.8
20260507161830 24 24 1.6 8.0 0.00 0.03 0.03 77 1011.0
20260507161546 24 272 0.0 11.3 0.00 0.03 0.03 77 1011.0
20260507161514 24 251 0.0 11.3 0.00 0.03 0.03 77 1011.6
20260507161334 24 241 1.6 11.3 0.00 0.03 0.03 78 1011.2
20260507160838 24 248 1.6 11.3 0.00 0.03 0.03 78 1011.4
20260507160341 24 13 0.0 16.1 0.00 0.03 0.03 79 1011.7
20260507160029 23 309 0.0 16.1 0.00 0.03 0.03 78 1011.4
20260507160024 24 255 0.0 16.1 0.00 0.03 0.03 78 1011.5
20260507155825 24 87 3.2 16.1 0.00 0.03 0.03 78 1010.7
20260507155328 24 64 4.8 37.0 0.00 0.03 0.03 78 1009.5
20260507154833 24 276 6.4 37.0 0.00 0.03 0.03 77 1009.8
20260507154527 24 248 1.6 17.7 0.00 0.03 0.03 77 1011.4
20260507154504 24 126 3.2 17.7 0.00 0.03 0.03 77 1012.0
20260507154336 24 101 1.6 17.7 0.00 0.03 0.03 77 1011.9
20260507153838 24 134 1.6 17.7 0.00 0.03 0.03 77 1012.6
20260507153326 24 263 1.6 8.0 0.00 0.03 0.03 78 1012.5
20260507153101 24 221 1.6 8.0 0.00 0.03 0.03 79 1012.3
20260507153006 24 257 1.6 8.0 0.00 0.03 0.03 78 1012.7
20260507153004 24 257 0.0 8.0 0.00 0.03 0.03 79 1012.3
20260507152830 24 355 1.6 8.0 0.00 0.03 0.03 79 1012.3
20260507152333 24 72 3.2 16.1 0.00 0.03 0.03 79 1012.1
20260507151836 24 237 3.2 11.3 0.00 0.03 0.03 80 1011.9
20260507151540 24 222 0.0 9.7 0.00 0.03 0.03 81 1011.9
20260507151513 24 256 0.0 9.7 0.00 0.03 0.03 80 1012.5
20260507151338 24 298 0.0 9.7 0.00 0.03 0.03 81 1012.3
20260507150842 24 38 3.2 14.5 0.00 0.03 0.03 80 1012.6
20260507150326 24 298 0.0 12.9 0.00 0.03 0.03 80 1012.1
20260507150027 23 35 3.2 17.7 0.00 0.03 0.03 80 1011.9
20260507150015 23 25 1.6 19.3 0.00 0.03 0.03 80 1012.3
20260507145830 24 248 3.2 17.7 0.00 0.03 0.03 80 1011.8
20260507145352 23 240 1.6 17.7 0.00 0.03 0.03 80 1011.7
20260507144834 23 107 4.8 17.7 0.00 0.03 0.03 80 1011.6
20260507144542 23 37 1.6 14.5 0.00 0.03 0.03 79 1011.6
20260507144518 23 330 1.6 14.5 0.00 0.03 0.03 79 1012.0
20260507144338 23 217 1.6 14.5 0.00 0.03 0.03 80 1011.5
20260507143841 23 301 3.2 19.3 0.00 0.03 0.03 79 1011.5
20260507143345 23 74 1.6 12.9 0.03 0.03 0.03 79 1011.1
20260507143018 22 261 0.0 16.1 0.03 0.03 0.03 79 1011.2
20260507143016 22 360 0.0 16.1 0.03 0.03 0.03 78 1011.6
20260507142828 22 103 1.6 16.1 0.03 0.03 0.03 79 1011.1
20260507142331 22 244 3.2 9.7 0.03 0.03 0.03 79 1010.9
20260507141834 22 71 0.0 9.7 0.03 0.03 0.03 80 1011.4
20260507141556 22 252 0.0 14.5 0.03 0.03 0.03 80 1011.5
20260507141515 22 347 0.0 14.5 0.03 0.03 0.03 80 1011.9
20260507141337 22 343 0.0 14.5 0.03 0.03 0.03 80 1011.5
20260507140840 22 286 3.2 14.5 0.03 0.03 0.03 82 1011.3
20260507140324 22 316 0.0 1.6 0.03 0.03 0.03 82 1012.5
20260507140043 22 294 0.0 9.7 0.03 0.03 0.03 82 1012.0
20260507140018 22 298 0.0 9.7 0.03 0.03 0.03 82 1012.3
20260507135855 22 267 0.0 9.7 0.03 0.03 0.03 82 1012.0
20260507135337 22 55 0.0 9.7 0.03 0.03 0.03 82 1012.0
20260507134857 22 213 3.2 9.7 0.03 0.03 0.03 82 1011.9
20260507134540 22 264 0.0 3.2 0.03 0.03 0.03 82 1011.9
20260507134518 22 267 0.0 11.3 0.03 0.03 0.03 81 1012.2
20260507134339 22 268 0.0 11.3 0.03 0.03 0.03 82 1012.1
20260507133902 22 51 0.0 11.3 0.00 0.00 0.00 81 1012.7
20260507133342 22 60 0.0 3.2 0.00 0.00 0.00 80 1013.1
20260507133026 22 269 0.0 3.2 0.00 0.00 0.00 79 1013.3
20260507133004 22 265 0.0 3.2 0.00 0.00 0.00 80 1012.9
20260507132827 22 264 0.0 3.2 0.00 0.00 0.00 80 1012.9
20260507132350 22 318 0.0 3.2 0.00 0.00 0.00 79 1013.1
20260507131832 22 297 0.0 4.8 0.00 0.00 0.00 79 1013.1
20260507131526 22 9 0.0 4.8 0.00 0.00 0.00 78 1013.4
20260507131515 22 1 0.0 4.8 0.00 0.00 0.00 78 1014.0
20260507131403 22 345 0.0 4.8 0.00 0.00 0.00 78 1014.0
20260507130826 22 57 1.6 4.8 0.00 0.00 0.00 78 1014.5
20260507130330 22 26 0.0 3.2 0.00 0.00 0.00 78 1014.3
20260507130050 22 299 0.0 3.2 0.00 0.00 0.00 78 1012.9
20260507130009 22 11 0.0 3.2 0.00 0.00 0.00 78 1012.9
20260507125831 22 17 0.0 3.2 0.00 0.00 0.00 78 1012.3
20260507125334 22 17 0.0 3.2 0.00 0.00 0.00 78 1011.2
20260507124837 22 86 0.0 8.0 0.00 0.00 0.00 78 1010.5
20260507124530 22 192 0.0 16.1 0.00 0.00 0.00 78 1010.4
20260507124519 22 243 0.0 16.1 0.00 0.00 0.00 77 1010.9
20260507124341 22 355 1.6 16.1 0.00 0.00 0.00 78 1010.4
20260507123845 22 274 3.2 16.1 0.00 0.00 0.00 77 1009.8
20260507123355 22 255 1.6 19.3 0.00 0.00 0.00 77 1010.1
20260507123030 22 239 0.0 19.3 0.00 0.00 0.00 77 1010.0
20260507123021 22 314 0.0 19.3 0.00 0.00 0.00 77 1010.3
20260507122837 22 161 1.6 19.3 0.00 0.00 0.00 77 1010.0
20260507122340 22 263 4.8 19.3 0.00 0.00 0.00 77 1009.8
20260507121843 21 239 4.8 20.9 0.00 0.00 0.00 76 1009.7
20260507121548 21 268 6.4 22.5 0.00 0.00 0.00 77 1009.8
20260507121524 21 359 4.8 22.5 0.00 0.00 0.00 76 1010.4
20260507121342 21 205 4.8 22.5 0.00 0.00 0.00 77 1009.9
20260507120826 21 266 4.8 22.5 0.00 0.00 0.00 79 1010.1
20260507120330 21 277 0.0 11.3 0.00 0.00 0.00 80 1011.5
20260507120032 21 344 0.0 11.3 0.00 0.00 0.00 80 1012.0
20260507120008 21 185 0.0 11.3 0.00 0.00 0.00 80 1012.4
20260507115835 21 261 1.6 11.3 0.00 0.00 0.00 81 1012.4
20260507115338 21 258 0.0 4.8 0.00 0.00 0.00 81 1012.9
20260507114842 21 91 0.0 0.0 0.00 0.00 0.00 81 1013.2
20260507114516 21 236 0.0 0.0 0.00 0.00 0.00 81 1013.2
20260507114512 21 238 0.0 0.0 0.00 0.00 0.00 81 1013.6
20260507114325 21 236 0.0 0.0 0.00 0.00 0.00 81 1013.2
20260507113828 21 298 0.0 0.0 0.00 0.00 0.00 82 1012.9
20260507113332 22 13 0.0 0.0 0.00 0.00 0.00 82 1012.3
20260507113103 21 13 0.0 0.0 0.00 0.00 0.00 82 1012.3
20260507113034 21 6 0.0 0.0 0.00 0.00 0.00 81 1012.7
20260507113002 21 13 0.0 0.0 0.00 0.00 0.00 82 1012.4
20260507112836 22 13 0.0 0.0 0.00 0.00 0.00 82 1012.5
20260507112339 22 13 0.0 0.0 0.00 0.00 0.00 82 1012.9
20260507111823 22 13 0.0 0.0 0.00 0.00 0.00 82 1013.0
20260507111548 22 13 0.0 0.0 0.00 0.00 0.00 82 1013.0
20260507111520 22 6 0.0 0.0 0.00 0.00 0.00 81 1013.4
20260507111327 22 13 0.0 0.0 0.00 0.00 0.00 82 1013.2
20260507110850 22 13 0.0 0.0 0.00 0.00 0.00 82 1013.3
20260507110352 22 219 0.0 0.0 0.00 0.00 0.00 82 1013.5
20260507110050 22 219 0.0 0.0 0.00 0.00 0.00 81 1013.4
20260507110025 22 114 0.0 0.0 0.00 0.00 0.00 81 1013.8
20260507105833 22 59 0.0 0.0 0.00 0.00 0.00 81 1013.4
20260507105333 22 60 0.0 0.0 0.00 0.00 0.00 81 1013.0
20260507104853 22 60 0.0 0.0 0.00 0.00 0.00 81 1013.2
20260507104552 22 60 0.0 0.0 0.00 0.00 0.00 81 1013.0
20260507104513 22 55 0.0 0.0 0.00 0.00 0.00 80 1013.5
20260507104336 22 60 0.0 0.0 0.00 0.00 0.00 80 1013.3
20260507103840 22 60 0.0 4.8 0.00 0.00 0.00 80 1013.2
20260507103323 22 60 0.0 4.8 0.00 0.00 0.00 80 1013.5
20260507103035 22 54 0.0 1.6 0.00 0.00 0.00 80 1013.7
20260507103020 22 49 0.0 1.6 0.00 0.00 0.00 80 1014.2
20260507102828 22 54 0.0 1.6 0.00 0.00 0.00 80 1013.8
20260507102331 22 55 0.0 4.8 0.00 0.00 0.00 80 1013.9
20260507101834 22 78 0.0 4.8 0.00 0.00 0.00 81 1014.2
20260507101518 22 245 0.0 3.2 0.00 0.00 0.00 81 1014.0
20260507101510 22 248 0.0 3.2 0.00 0.00 0.00 80 1014.4
20260507101357 22 227 0.0 3.2 0.00 0.00 0.00 81 1014.2
20260507100840 22 71 0.0 1.6 0.00 0.00 0.00 81 1014.0
20260507100323 22 71 0.0 1.6 0.00 0.00 0.00 81 1013.8
20260507100047 22 57 0.0 1.6 0.00 0.00 0.00 81 1013.7
20260507100004 22 52 0.0 4.8 0.00 0.00 0.00 80 1014.1
20260507095828 22 57 0.0 4.8 0.00 0.00 0.00 81 1013.8
20260507095328 22 57 0.0 4.8 0.00 0.00 0.00 81 1013.8
20260507094832 23 227 0.0 1.6 0.00 0.00 0.00 81 1014.0
20260507094527 22 227 0.0 1.6 0.00 0.00 0.00 81 1014.1
20260507094505 22 229 0.0 1.6 0.00 0.00 0.00 81 1014.4
20260507094335 23 177 0.0 1.6 0.00 0.00 0.00 81 1014.2
20260507093835 23 73 0.0 1.6 0.00 0.00 0.00 81 1013.9
20260507093336 23 69 0.0 3.2 0.00 0.00 0.00 81 1013.7
20260507093012 22 64 0.0 3.2 0.00 0.00 0.00 81 1013.9
20260507093008 22 69 0.0 3.2 0.00 0.00 0.00 81 1013.5
20260507092840 23 57 0.0 3.2 0.00 0.00 0.00 82 1013.5
20260507092402 23 219 0.0 0.0 0.00 0.00 0.00 82 1013.6
20260507091823 23 225 0.0 0.0 0.00 0.00 0.00 82 1013.5
20260507091528 23 41 0.0 0.0 0.00 0.00 0.00 82 1013.3
20260507091518 23 35 0.0 0.0 0.00 0.00 0.00 81 1013.7
20260507091326 23 41 0.0 0.0 0.00 0.00 0.00 82 1013.4
20260507090829 23 41 0.0 0.0 0.00 0.00 0.00 82 1013.5
20260507090332 23 42 0.0 1.6 0.00 0.00 0.00 82 1012.9
20260507090016 23 42 0.0 1.6 0.00 0.00 0.00 81 1012.8
20260507090005 23 36 0.0 1.6 0.00 0.00 0.00 81 1013.1
20260507085838 23 42 0.0 1.6 0.00 0.00 0.00 82 1012.9
20260507085338 23 22 0.0 1.6 0.00 0.00 0.00 81 1012.6
20260507084842 23 22 0.0 3.2 0.00 0.00 0.00 82 1012.6
20260507084556 23 302 0.0 3.2 0.00 0.00 0.00 82 1012.4
20260507084507 23 286 0.0 3.2 0.00 0.00 0.00 81 1012.8
20260507084326 23 34 0.0 3.2 0.00 0.00 0.00 82 1012.4
20260507083829 23 96 0.0 3.2 0.00 0.00 0.00 82 1012.3
20260507083334 23 234 0.0 8.0 0.00 0.00 0.00 82 1012.3
20260507083040 23 71 0.0 8.0 0.00 0.00 0.00 82 1012.3
20260507083012 23 72 0.0 8.0 0.00 0.00 0.00 81 1012.5
20260507082838 23 279 1.6 8.0 0.00 0.00 0.00 82 1012.3
20260507082340 23 22 0.0 8.0 0.00 0.00 0.00 82 1012.2
20260507081842 23 62 1.6 11.3 0.00 0.00 0.00 82 1012.0
20260507081530 23 63 1.6 11.3 0.00 0.00 0.00 81 1012.1
20260507081526 23 87 1.6 11.3 0.00 0.00 0.00 82 1011.9
20260507081326 23 292 3.2 11.3 0.00 0.00 0.00 82 1011.9
20260507080830 23 236 3.2 8.0 0.00 0.00 0.00 82 1011.9
20260507080353 23 20 1.6 9.7 0.00 0.00 0.00 82 1011.8
20260507080100 23 69 0.0 9.7 0.00 0.00 0.00 82 1011.8
20260507080021 23 257 0.0 9.7 0.00 0.00 0.00 81 1012.1
20260507075835 23 109 1.6 9.7 0.00 0.00 0.00 82 1011.8
20260507075338 23 239 0.0 14.5 0.00 0.00 0.00 82 1011.6
20260507074840 23 63 0.0 14.5 0.00 0.00 0.00 81 1011.5
20260507074534 23 239 1.6 12.9 0.00 0.00 0.00 81 1011.3
20260507074506 23 27 1.6 12.9 0.00 0.00 0.00 81 1011.6
20260507074342 23 229 1.6 12.9 0.00 0.00 0.00 81 1011.3
20260507073841 23 32 1.6 14.5 0.00 0.00 0.00 81 1011.4
20260507073324 23 98 3.2 11.3 0.00 0.00 0.00 81 1011.7
20260507073015 23 89 1.6 11.3 0.00 0.00 0.00 81 1011.8
20260507073009 23 85 0.0 11.3 0.00 0.00 0.00 80 1012.1
20260507072827 23 45 1.6 11.3 0.00 0.00 0.00 81 1011.9
20260507072330 23 5 1.6 9.7 0.00 0.00 0.00 81 1012.1
20260507071833 23 61 0.0 9.7 0.00 0.00 0.00 81 1012.2
20260507071610 23 171 0.0 9.7 0.00 0.00 0.00 81 1012.1
20260507071512 23 91 0.0 9.7 0.00 0.00 0.00 81 1012.5
20260507071356 23 258 1.6 9.7 0.00 0.00 0.00 81 1012.1
20260507070840 23 284 1.6 11.3 0.00 0.00 0.00 81 1012.0
20260507070324 23 75 1.6 11.3 0.00 0.00 0.00 82 1012.0
20260507070022 23 302 0.0 9.7 0.00 0.00 0.00 82 1012.1
20260507065826 23 201 1.6 14.5 0.00 0.00 0.00 82 1012.1
20260507065329 23 292 0.0 14.5 0.00 0.00 0.00 82 1012.1
20260507064832 23 65 1.6 11.3 0.00 0.00 0.00 82 1012.1
20260507064559 23 60 0.0 11.3 0.00 0.00 0.00 82 1012.1
20260507064508 23 44 0.0 11.3 0.00 0.00 0.00 82 1012.1
20260507064355 23 234 1.6 11.3 0.00 0.00 0.00 82 1012.2
20260507063836 23 46 0.0 9.7 0.00 0.00 0.00 82 1012.3
20260507063340 23 260 1.6 9.7 0.00 0.00 0.00 82 1012.4
20260507063025 23 59 0.0 9.7 0.00 0.00 0.00 82 1012.5
20260507062824 23 49 0.0 9.7 0.00 0.00 0.00 82 1012.4
20260507062327 23 174 1.6 14.5 0.00 0.00 0.00 82 1012.6
20260507061831 23 59 3.2 14.5 0.00 0.00 0.00 82 1012.7
20260507061511 23 191 0.0 9.7 0.00 0.00 0.00 82 1012.5
20260507061334 23 292 1.6 9.7 0.00 0.00 0.00 82 1012.7
20260507060838 23 11 3.2 19.3 0.00 0.00 0.00 82 1013.0
20260507060400 23 238 0.0 12.9 0.00 0.00 0.00 82 1012.9
20260507060037 23 197 0.0 12.9 0.00 0.00 0.00 82 1012.9
20260507060018 23 17 0.0 19.3 0.00 0.00 0.00 82 1013.2
20260507055839 23 350 0.0 17.7 0.00 0.00 0.00 82 1012.9
20260507055400 23 264 1.6 17.7 0.00 0.00 0.00 83 1012.9
20260507054843 23 60 1.6 11.3 0.00 0.00 0.00 83 1012.8
20260507054545 23 43 3.2 11.3 0.00 0.00 0.00 83 1012.9
20260507054520 23 207 1.6 11.3 0.00 0.00 0.00 82 1013.2
20260507054344 23 35 3.2 11.3 0.00 0.00 0.00 83 1013.0
20260507053825 23 65 1.6 17.7 0.00 0.00 0.00 83 1013.0
20260507053348 23 243 1.6 17.7 0.00 0.00 0.00 83 1013.3
20260507053115 23 276 1.6 17.7 0.00 0.00 0.00 84 1013.4
20260507053026 23 165 1.6 12.9 0.00 0.00 0.00 83 1013.7
20260507052830 23 236 3.2 12.9 0.00 0.00 0.00 84 1013.4
20260507052332 23 67 1.6 12.9 0.00 0.00 0.00 84 1013.4
20260507051835 23 35 1.6 9.7 0.00 0.00 0.00 84 1013.4
20260507051539 23 217 1.6 11.3 0.00 0.00 0.00 84 1013.3
20260507051510 23 219 1.6 11.3 0.00 0.00 0.00 84 1013.7
20260507051340 23 188 3.2 11.3 0.00 0.00 0.00 84 1013.4
20260507050823 23 81 1.6 16.1 0.00 0.00 0.00 84 1013.8
20260507050327 23 242 1.6 16.1 0.00 0.00 0.00 84 1013.8
20260507050020 23 102 3.2 12.9 0.00 0.00 0.00 85 1013.7
20260507050014 23 1 1.6 14.5 0.00 0.00 0.00 84 1014.0
20260507045832 23 355 3.2 12.9 0.00 0.00 0.00 85 1013.8
20260507045334 23 265 3.2 11.3 0.00 0.00 0.00 85 1013.6
20260507044838 23 250 3.2 16.1 0.00 0.00 0.00 85 1013.7
20260507044520 23 13 1.6 17.7 0.00 0.00 0.00 84 1013.9
20260507044503 23 19 1.6 16.1 0.00 0.00 0.00 85 1013.5
20260507044341 23 11 0.0 11.3 0.00 0.00 0.00 85 1013.6
20260507043825 23 273 1.6 14.5 0.00 0.00 0.00 85 1013.6
20260507043328 23 84 3.2 14.5 0.00 0.00 0.00 85 1013.7
20260507043052 23 232 1.6 14.5 0.00 0.00 0.00 85 1013.7
20260507043027 23 28 3.2 16.1 0.00 0.00 0.00 85 1014.1
20260507042833 23 194 3.2 14.5 0.00 0.00 0.00 85 1013.8
20260507042355 23 252 3.2 12.9 0.00 0.00 0.00 85 1013.9
20260507041835 23 242 1.6 12.9 0.00 0.00 0.00 85 1014.0
20260507041523 23 349 1.6 12.9 0.00 0.00 0.00 85 1014.2
20260507041509 23 153 0.0 12.9 0.00 0.00 0.00 85 1014.0
20260507041339 23 236 3.2 12.9 0.00 0.00 0.00 85 1014.0
20260507040823 23 225 3.2 9.7 0.00 0.00 0.00 85 1014.1
20260507040346 23 228 1.6 9.7 0.00 0.00 0.00 85 1013.9
20260507040049 23 46 1.6 11.3 0.00 0.00 0.00 85 1013.8
20260507040012 23 295 1.6 11.3 0.00 0.00 0.00 85 1014.1
20260507035844 23 248 0.0 11.3 0.00 0.00 0.00 85 1013.8
20260507035328 23 68 1.6 16.1 0.00 0.00 0.00 85 1013.8
20260507034835 23 160 0.0 19.3 0.00 0.00 0.00 85 1013.7
20260507034522 23 188 1.6 19.3 0.00 0.00 0.00 85 1013.9
20260507034323 23 45 3.2 19.3 0.00 0.00 0.00 85 1013.6
20260507033830 23 281 1.6 11.3 0.00 0.00 0.00 85 1013.8
20260507033402 23 150 1.6 9.7 0.00 0.00 0.00 85 1013.9
20260507033042 23 44 1.6 12.9 0.00 0.00 0.00 85 1013.8
20260507033021 23 13 1.6 12.9 0.00 0.00 0.00 85 1014.1
20260507032829 23 339 1.6 12.9 0.00 0.00 0.00 85 1013.9
20260507032335 23 46 3.2 17.7 0.00 0.00 0.00 85 1013.8
20260507031822 23 360 1.6 17.7 0.00 0.00 0.00 85 1013.8
20260507031526 23 86 3.2 16.1 0.00 0.00 0.00 85 1013.9
20260507031522 23 125 1.6 16.1 0.00 0.00 0.00 85 1013.7
20260507031330 23 192 1.6 11.3 0.00 0.00 0.00 85 1013.8
20260507030837 23 253 3.2 16.1 0.00 0.00 0.00 85 1013.7
20260507030328 23 242 1.6 16.1 0.00 0.00 0.00 85 1013.7
20260507030024 23 161 3.2 16.1 0.00 0.00 0.00 85 1013.9
20260507030010 23 192 3.2 16.1 0.00 0.00 0.00 85 1013.6
20260507025837 23 250 3.2 14.5 0.00 0.00 0.00 85 1013.6
20260507025323 23 269 3.2 20.9 0.00 0.00 0.00 85 1013.5
20260507024830 23 63 3.2 20.9 0.00 0.00 0.00 85 1013.2
20260507024603 23 229 1.6 17.7 0.00 0.00 0.00 85 1013.1
20260507024515 23 255 1.6 17.7 0.00 0.00 0.00 84 1013.5
20260507024337 23 12 1.6 17.7 0.00 0.00 0.00 85 1013.2
20260507023824 23 234 3.2 17.7 0.00 0.00 0.00 85 1013.3
20260507023331 23 42 1.6 16.1 0.00 0.00 0.00 85 1013.3
20260507023039 23 304 3.2 16.1 0.00 0.00 0.00 85 1013.4
20260507023016 23 188 1.6 16.1 0.00 0.00 0.00 84 1013.6
20260507022839 23 209 6.4 16.1 0.00 0.00 0.00 85 1013.3
20260507022325 23 86 3.2 20.9 0.00 0.00 0.00 85 1013.2
20260507021831 23 221 3.2 20.9 0.00 0.00 0.00 84 1013.1
20260507021528 23 277 1.6 17.7 0.00 0.00 0.00 84 1013.2
20260507021523 23 274 1.6 17.7 0.00 0.00 0.00 84 1013.6
20260507021338 23 282 3.2 17.7 0.00 0.00 0.00 84 1013.3
20260507020825 23 284 0.0 12.9 0.00 0.00 0.00 84 1013.5
20260507020333 23 76 0.0 9.7 0.00 0.00 0.00 84 1013.6
20260507020043 23 307 1.6 16.1 0.00 0.00 0.00 83 1014.0
20260507020019 23 329 0.0 16.1 0.00 0.00 0.00 84 1013.6
20260507015842 23 232 0.0 16.1 0.00 0.00 0.00 84 1013.7
20260507015329 23 282 3.2 16.1 0.00 0.00 0.00 84 1013.6
20260507014836 23 186 3.2 12.9 0.00 0.00 0.00 84 1013.7
20260507014614 23 250 0.0 11.3 0.00 0.00 0.00 84 1013.7
20260507014508 23 328 1.6 11.3 0.00 0.00 0.00 83 1014.0
20260507014341 23 274 1.6 11.3 0.00 0.00 0.00 84 1013.8
20260507013849 23 53 0.0 11.3 0.00 0.00 0.00 83 1014.0
20260507013336 23 268 0.0 11.3 0.00 0.00 0.00 83 1013.8
20260507013020 23 274 0.0 14.5 0.00 0.00 0.00 83 1014.0
20260507012825 23 234 1.6 14.5 0.00 0.00 0.00 83 1013.8
20260507012332 23 253 1.6 14.5 0.00 0.00 0.00 83 1014.1
20260507011840 23 234 1.6 12.9 0.00 0.00 0.00 83 1014.2
20260507011507 23 227 0.0 12.9 0.00 0.00 0.00 83 1014.2
20260507011328 23 78 1.6 12.9 0.00 0.00 0.00 83 1014.2
20260507010835 23 226 1.6 12.9 0.00 0.00 0.00 83 1014.2
20260507010323 23 277 0.0 11.3 0.00 0.00 0.00 82 1014.1
20260507010005 23 224 0.0 11.3 0.00 0.00 0.00 82 1014.2
20260507005832 23 244 1.6 11.3 0.00 0.00 0.00 82 1013.9
20260507005337 23 276 0.0 9.7 0.00 0.00 0.00 83 1014.0
20260507004844 23 73 1.6 9.7 0.00 0.00 0.00 82 1014.0
20260507004514 23 261 0.0 14.5 0.00 0.00 0.00 82 1013.9
20260507004509 23 264 0.0 14.5 0.00 0.00 0.00 82 1014.2
20260507004331 23 321 1.6 14.5 0.00 0.00 0.00 82 1014.0
20260507003839 23 51 0.0 9.7 0.00 0.00 0.00 82 1014.1
20260507003326 23 345 1.6 9.7 0.00 0.00 0.00 82 1014.2
20260507003102 23 244 0.0 12.9 0.00 0.00 0.00 82 1014.1
20260507003012 23 62 0.0 12.9 0.00 0.00 0.00 82 1014.4
20260507003002 23 67 0.0 12.9 0.00 0.00 0.00 82 1014.1
20260507002835 23 91 0.0 12.9 0.00 0.00 0.00 82 1014.0
20260507002322 23 216 1.6 11.3 0.00 0.00 0.00 82 1013.9
20260507001829 23 63 1.6 12.9 0.00 0.00 0.00 82 1013.7
20260507001550 23 250 0.0 12.9 0.00 0.00 0.00 82 1013.7
20260507001544 23 227 0.0 12.9 0.00 0.00 0.00 81 1014.1
20260507001337 23 52 0.0 12.9 0.00 0.00 0.00 82 1013.7
20260507000845 23 64 1.6 8.0 0.00 0.00 0.00 82 1013.6
20260507000352 23 65 1.6 17.7 0.00 0.00 0.00 81 1013.7
20260507000013 23 290 3.2 17.7 0.00 0.00 0.00 82 1013.5
20260506235839 23 258 3.2 9.7 0.00 0.00 0.00 81 1013.6
20260506235326 24 280 0.0 11.3 0.00 0.00 0.00 81 1013.5
20260506234834 24 39 1.6 11.3 0.00 0.00 0.00 81 1013.8
20260506234553 23 238 0.0 11.3 0.00 0.00 0.00 81 1013.6
20260506234342 24 159 3.2 11.3 0.00 0.00 0.00 81 1013.6
20260506233849 24 306 0.0 12.9 0.00 0.00 0.00 81 1013.7
20260506233429 23 263 3.2 11.3 0.00 0.00 0.00 80 1013.9
20260506233336 24 242 1.6 12.9 0.00 0.00 0.00 81 1013.5
20260506233020 23 246 1.6 11.3 0.00 0.00 0.00 81 1013.5
20260506232825 24 333 1.6 11.3 0.00 0.00 0.00 81 1013.5
20260506232331 24 65 1.6 14.5 0.00 0.00 0.00 81 1013.6
20260506231821 24 265 1.6 11.3 0.00 0.00 0.00 80 1013.7
20260506231810 23 288 0.0 11.3 0.00 0.00 0.00 80 1013.9
20260506231507 24 278 0.0 11.3 0.00 0.00 0.00 80 1013.6
20260506231330 24 240 1.6 11.3 0.00 0.00 0.00 80 1013.5
20260506230836 24 5 1.6 16.1 0.00 0.00 0.00 80 1013.5
20260506230343 24 235 1.6 16.1 0.00 0.00 0.00 80 1013.5
20260506230036 24 290 1.6 16.1 0.00 0.00 0.00 80 1013.3
20260506225853 24 200 3.2 16.1 0.00 0.00 0.00 80 1013.3
20260506224829 25 110 3.2 16.1 0.00 0.00 0.00 80 1013.5
20260506224539 24 239 0.0 8.0 0.00 0.00 0.00 80 1013.5
20260506224505 24 262 0.0 8.0 0.00 0.00 0.00 80 1013.9
20260506224334 25 159 0.0 8.0 0.00 0.00 0.00 80 1013.6
20260506223826 25 26 1.6 17.7 0.00 0.00 0.00 80 1013.9
20260506223334 25 202 1.6 17.7 0.00 0.00 0.00 80 1014.0
20260506223027 24 277 0.0 19.3 0.00 0.00 0.00 80 1014.0
20260506223006 24 251 0.0 19.3 0.00 0.00 0.00 80 1014.3
20260506222823 25 246 1.6 19.3 0.00 0.00 0.00 80 1014.0
20260506222355 25 187 1.6 19.3 0.00 0.00 0.00 80 1014.0
20260506221822 25 228 1.6 14.5 0.00 0.00 0.00 80 1013.8
20260506221557 24 252 0.0 11.3 0.00 0.00 0.00 80 1013.7
20260506221508 24 281 1.6 11.3 0.00 0.00 0.00 80 1014.2
20260506221330 25 330 1.6 11.3 0.00 0.00 0.00 80 1013.8
20260506220838 25 234 1.6 11.3 0.00 0.00 0.00 80 1013.9
20260506220345 25 202 1.6 12.9 0.00 0.00 0.00 80 1013.7
20260506220031 25 249 1.6 12.9 0.00 0.00 0.00 80 1013.6
20260506220012 25 207 1.6 12.9 0.00 0.00 0.00 79 1014.0
20260506215830 25 238 1.6 11.3 0.00 0.00 0.00 80 1013.7
20260506215338 25 217 0.0 9.7 0.00 0.00 0.00 80 1013.7
20260506214825 25 329 0.0 11.3 0.00 0.00 0.00 79 1013.7
20260506214519 25 65 4.8 14.5 0.00 0.00 0.00 79 1014.1
20260506214509 25 70 4.8 14.5 0.00 0.00 0.00 79 1013.7
20260506214333 25 218 4.8 14.5 0.00 0.00 0.00 79 1013.7
20260506213822 25 42 3.2 16.1 0.00 0.00 0.00 79 1013.8
20260506213327 25 266 1.6 16.1 0.00 0.00 0.00 79 1013.8
20260506213055 25 269 1.6 16.1 0.00 0.00 0.00 79 1013.9
20260506213003 25 257 1.6 14.5 0.00 0.00 0.00 78 1014.4
20260506212836 25 254 3.2 14.5 0.00 0.00 0.00 79 1014.0
20260506212343 25 206 0.0 12.9 0.00 0.00 0.00 78 1014.0
20260506211848 25 153 1.6 20.9 0.00 0.00 0.00 78 1014.2
20260506211519 25 61 3.2 20.9 0.00 0.00 0.00 77 1014.1
20260506211507 25 327 1.6 20.9 0.00 0.00 0.00 77 1014.4
20260506211335 25 323 4.8 20.9 0.00 0.00 0.00 78 1014.1
20260506210823 26 54 1.6 9.7 0.00 0.00 0.00 77 1014.2
20260506210329 26 59 1.6 11.3 0.00 0.00 0.00 77 1014.3
20260506210022 25 162 0.0 17.7 0.00 0.00 0.00 76 1014.6
20260506210011 25 163 0.0 17.7 0.00 0.00 0.00 77 1014.2
20260506205838 26 221 0.0 17.7 0.00 0.00 0.00 77 1014.2
20260506205323 26 319 3.2 17.7 0.00 0.00 0.00 76 1014.3
20260506204829 26 106 1.6 12.9 0.00 0.00 0.00 76 1014.3
20260506204554 26 55 3.2 12.9 0.00 0.00 0.00 75 1014.3
20260506204516 26 260 1.6 12.9 0.00 0.00 0.00 74 1014.7
20260506204335 26 23 1.6 12.9 0.00 0.00 0.00 75 1014.3
20260506203842 26 28 1.6 16.1 0.00 0.00 0.00 75 1014.4
20260506203325 27 103 1.6 16.1 0.00 0.00 0.00 75 1014.3
20260506203020 26 38 1.6 14.5 0.00 0.00 0.00 75 1014.2
20260506202833 27 215 4.8 14.5 0.00 0.00 0.00 74 1014.3
20260506202338 27 264 3.2 16.1 0.00 0.00 0.00 75 1014.4
20260506201825 27 232 0.0 16.1 0.00 0.00 0.00 74 1014.5
20260506201557 26 209 3.2 16.1 0.00 0.00 0.00 74 1014.5
20260506201504 26 120 3.2 16.1 0.00 0.00 0.00 73 1014.9
20260506201331 27 233 4.8 16.1 0.00 0.00 0.00 74 1014.6
20260506200838 27 234 3.2 14.5 0.00 0.00 0.00 74 1014.7
20260506200325 27 105 4.8 14.5 0.00 0.00 0.00 74 1014.6
20260506200049 27 222 1.6 14.5 0.00 0.00 0.00 74 1014.7
20260506200010 27 214 1.6 14.5 0.00 0.00 0.00 74 1015.1
20260506195900 27 217 3.2 14.5 0.00 0.00 0.00 74 1014.7
20260506195347 27 349 3.2 12.9 0.00 0.00 0.00 74 1014.7
20260506194833 27 115 1.6 20.9 0.00 0.00 0.00 74 1014.7
20260506194545 26 234 6.4 20.9 0.00 0.00 0.00 73 1014.6
20260506194511 27 83 6.4 20.9 0.00 0.00 0.00 73 1015.0
20260506194341 27 246 6.4 20.9 0.00 0.00 0.00 73 1014.6
20260506193844 27 177 4.8 14.5 0.00 0.00 0.00 73 1014.7
20260506193347 27 293 1.6 8.0 0.00 0.00 0.00 74 1014.8
20260506193025 27 61 1.6 9.7 0.00 0.00 0.00 73 1015.3
20260506193013 27 66 1.6 11.3 0.00 0.00 0.00 73 1014.9
20260506192859 27 98 3.2 11.3 0.00 0.00 0.00 74 1014.9
20260506192324 27 190 1.6 11.3 0.00 0.00 0.00 73 1015.0
20260506191832 27 50 3.2 11.3 0.00 0.00 0.00 73 1015.0
20260506191534 27 59 1.6 12.9 0.00 0.00 0.00 73 1015.0
20260506191527 27 41 1.6 14.5 0.00 0.00 0.00 72 1015.4
20260506191339 27 179 3.2 12.9 0.00 0.00 0.00 73 1015.1
20260506190827 27 70 1.6 12.9 0.00 0.00 0.00 73 1015.2
20260506190401 27 67 1.6 12.9 0.00 0.00 0.00 72 1015.2
20260506190011 27 55 3.2 12.9 0.00 0.00 0.00 71 1015.6
20260506190004 27 60 3.2 12.9 0.00 0.00 0.00 72 1015.2
20260506185829 27 75 3.2 12.9 0.00 0.00 0.00 72 1015.3
20260506185333 27 185 3.2 16.1 0.00 0.00 0.00 73 1015.3
20260506184821 27 251 0.0 16.1 0.00 0.00 0.00 74 1015.4
20260506184550 27 205 6.4 22.5 0.00 0.00 0.00 73 1015.4
20260506184511 27 233 6.4 22.5 0.00 0.00 0.00 72 1015.8
20260506184328 27 136 4.8 22.5 0.00 0.00 0.00 74 1015.6
20260506183836 27 65 6.4 22.5 0.00 0.00 0.00 73 1015.5
20260506183321 27 228 6.4 19.3 0.00 0.00 0.00 73 1015.5
20260506183032 27 227 4.8 19.3 0.00 0.00 0.00 72 1015.6
20260506183017 27 236 4.8 19.3 0.00 0.00 0.00 72 1015.9
20260506182855 27 248 4.8 19.3 0.00 0.00 0.00 72 1015.5
20260506182339 27 142 1.6 14.5 0.00 0.00 0.00 72 1015.6
20260506181825 27 44 0.0 16.1 0.00 0.00 0.00 75 1015.6
20260506181601 27 257 3.2 16.1 0.00 0.00 0.00 74 1015.6
20260506181534 27 193 1.6 16.1 0.00 0.00 0.00 73 1016.0
20260506181332 27 38 4.8 16.1 0.00 0.00 0.00 73 1015.6
20260506180838 27 267 1.6 11.3 0.00 0.00 0.00 74 1015.7
20260506180325 27 232 3.2 16.1 0.00 0.00 0.00 74 1015.7
20260506180058 26 339 3.2 19.3 0.00 0.00 0.00 75 1015.8
20260506180027 26 265 3.2 19.3 0.00 0.00 0.00 73 1016.2
20260506175834 26 240 3.2 19.3 0.00 0.00 0.00 74 1016.0
20260506175340 27 111 6.4 19.3 0.00 0.00 0.00 74 1015.9
20260506174827 26 223 4.8 19.3 0.00 0.00 0.00 74 1016.0
20260506174528 26 266 1.6 12.9 0.00 0.00 0.00 75 1016.1
20260506174508 26 286 3.2 12.9 0.00 0.00 0.00 74 1016.5
20260506174333 26 286 1.6 12.9 0.00 0.00 0.00 75 1016.2
20260506173821 26 240 4.8 12.9 0.00 0.00 0.00 74 1016.3
20260506173328 26 316 3.2 14.5 0.00 0.00 0.00 75 1016.4
20260506173017 26 26 1.6 14.5 0.00 0.00 0.00 76 1016.4
20260506173012 26 6 1.6 16.1 0.00 0.00 0.00 75 1016.8
20260506172834 26 242 3.2 16.1 0.00 0.00 0.00 76 1016.4
20260506172324 26 112 3.2 16.1 0.00 0.00 0.00 76 1016.6
20260506171846 26 62 4.8 16.1 0.00 0.00 0.00 75 1016.6
20260506171545 25 238 0.0 14.5 0.00 0.00 0.00 76 1016.6
20260506171519 25 210 0.0 14.5 0.00 0.00 0.00 75 1017.0
20260506171357 26 63 3.2 14.5 0.00 0.00 0.00 76 1016.5
20260506170822 26 103 1.6 12.9 0.00 0.00 0.00 77 1016.6
20260506170329 25 236 1.6 11.3 0.00 0.00 0.00 77 1016.5
20260506170008 25 220 0.0 12.9 0.00 0.00 0.00 77 1016.5
20260506170004 25 216 0.0 12.9 0.00 0.00 0.00 76 1017.0
20260506165822 25 244 3.2 12.9 0.00 0.00 0.00 77 1016.6
20260506165329 25 236 3.2 12.9 0.00 0.00 0.00 76 1016.7
20260506164836 25 248 1.6 19.3 0.00 0.00 0.00 76 1016.9
20260506164551 25 40 3.2 19.3 0.00 0.00 0.00 76 1016.7
20260506164524 25 91 3.2 19.3 0.00 0.00 0.00 76 1017.1